OVS-2

operational
NORAD ID: 43440 Int'l Des: 2018-040 Owner: ZHUORB Country: CN
LEOCIRCULARRETROGRADESSO

Über OVS-2

Beschreibung wird geladen...

Live-Position

3D-Globus wird geladen...

Nächste Überflüge

Höhenverlauf

Altitude vs Time

uPlot chart will show altitude changes over time

Zweizeiliger Elementsatz

1 43440U 18040B 26063.00192420 .00009227 00000-0 38805-3 0 9990
2 43440 97.0493 86.5184 0001733 268.0856 92.0184 15.23603007436699
Epoch: 4. März 2026 • Age: 14 hours

Aktueller Status

Höhe 518.9 km
Geschwindigkeit 7.60 km/s
Subsatellitenpunkt -65.61°S, 91.34°E
Startdatum 26. Apr. 2018
Alter 7.8 years
Typ other

Technische Details

Klassifizierung Payload
Masse 95.00 kg
Trockenmasse 95.00 kg
Gesamtmasse 95.00 kg
Länge 0.50 m
Durchmesser 0.50 m
Spannweite 1.00 m
Form Box
Hersteller HARB
Bus-Typ OVS-1
Phasenstatus In Orbit
Besitzer/Staat ZHUORB/CN

Große Konstellationen

Loading constellations...